Montrose, CO

11:01 AM MST on December 03, 2016 (GMT -0700)
Montrose Regional

Weather History for KMTJ - May, 2014

Change the Weather History Date:

Friday, May 23, 2014

  Actual Average Record
Temperature  
Mean Temperature 60 °F 61 °F  
Max Temperature 71 °F 76 °F 91 °F (2000)
Min Temperature 49 °F 45 °F 33 °F (2002)
Degree Days  
Heating Degree Days 5 5  
Month to date heating degree days 195 192  
Since 1 July heating degree days 6091 6130  
Cooling Degree Days 0 1  
Month to date cooling degree days 18 5  
Year to date cooling degree days 18 5  
Growing Degree Days 10 (Base 50)    
Moisture  
Dew Point 39 °F    
Average Humidity 46    
Maximum Humidity 63    
Minimum Humidity 28    
Precipitation  
Precipitation T in 0.02 in 0.12 in (2015)
Month to date precipitation 0.35 0.92  
Year to date precipitation 2.48 4.14  
Sea Level Pressure  
Sea Level Pressure 29.98 in    
Wind  
Wind Speed 8 mph (SW)    
Max Wind Speed 25 mph    
Max Gust Speed 34 mph    
Visibility 10 miles    
Events Rain , Thunderstorm    
T = Trace of Precipitation, MM = Missing Value Source: NWS Daily Summary

Daily Weather History Graph

Daily Weather History Graph

Search for Another Location

Airport or City:

Trip Planner

Search our weather history database for the weather conditions in past years. The results will help you decide how hot, cold, wet, or windy it might be!

Date:

Astronomy

May. 23, 2014 Rise Set
Actual Time 5:53 AM MDT 8:23 PM MDT
Civil Twilight 5:23 AM MDT 8:53 PM MDT
Nautical Twilight 4:45 AM MDT 9:31 PM MDT
Astronomical Twilight 4:03 AM MDT 10:13 PM MDT
Moon 2:46 AM MDT (5/23) 3:23 PM MDT (5/23)
Length of Visible Light 15h 30m
Length of Day
14h 29m
Waning Crescent, 26% of the Moon is Illuminated
May 23
Waning Crescent
May 28
New
Jun 5
First Quarter
Jun 12
Full
Jun 19
Last Quarter

Hourly Weather History & Observations

Time (MDT) Temp. Dew Point Humidity Pressure Visibility Wind Dir Wind Speed Gust Speed Precip Events Conditions
12:53 AM 53.1 °F 37.0 °F 55% 29.95 in 10.0 mi SE 11.5 mph - N/A   Clear
1:53 AM 52.0 °F 37.0 °F 57% 29.94 in 10.0 mi SSE 9.2 mph - N/A   Clear
2:53 AM 52.0 °F 37.0 °F 57% 29.96 in 10.0 mi ESE 3.5 mph - N/A   Clear
3:53 AM 51.1 °F 37.0 °F 59% 29.99 in 10.0 mi East 6.9 mph - N/A   Scattered Clouds
4:53 AM 52.0 °F 37.9 °F 59% 29.99 in 10.0 mi South 4.6 mph - N/A   Partly Cloudy
5:53 AM 54.0 °F 37.9 °F 55% 29.99 in 10.0 mi SE 3.5 mph - N/A   Partly Cloudy
6:53 AM 55.0 °F 39.9 °F 57% 30.01 in 10.0 mi Calm Calm - N/A   Mostly Cloudy
7:53 AM 57.9 °F 39.9 °F 51% 29.99 in 10.0 mi North 3.5 mph - N/A   Overcast
9:53 AM 63.0 °F 39.9 °F 43% 29.98 in 10.0 mi NNW 9.2 mph - N/A   Clear
10:53 AM 64.9 °F 39.9 °F 40% 29.98 in 10.0 mi NNW 9.2 mph - N/A   Clear
11:53 AM 68.0 °F 41.0 °F 37% 29.94 in 10.0 mi NW 9.2 mph - N/A   Clear
12:53 PM 66.9 °F 39.0 °F 36% 29.93 in 10.0 mi NNW 8.1 mph - N/A   Clear
1:12 PM 66.9 °F 41.0 °F 39% 30.10 in 10.0 mi West 12.7 mph - 0.00 in Rain , Thunderstorm Light Rain
1:35 PM 64.0 °F 39.0 °F 40% 30.11 in 10.0 mi WSW 5.8 mph 21.9 mph 0.00 in Rain Light Rain
1:53 PM 69.1 °F 36.0 °F 30% 29.91 in 10.0 mi West 16.1 mph 20.7 mph 0.00 in   Scattered Clouds
2:53 PM 68.0 °F 36.0 °F 31% 29.91 in 10.0 mi NE 5.8 mph - N/A   Mostly Cloudy
3:53 PM 68.0 °F 35.1 °F 30% 29.91 in 10.0 mi WSW 8.1 mph - N/A   Mostly Cloudy
4:53 PM 60.1 °F 39.0 °F 46% 29.97 in 10.0 mi WSW 18.4 mph 27.6 mph N/A   Overcast
5:53 PM 60.1 °F 39.9 °F 47% 29.98 in 10.0 mi South 9.2 mph - 0.00 in   Partly Cloudy
6:53 PM 59.0 °F 39.0 °F 48% 29.98 in 10.0 mi SSE 11.5 mph - N/A   Partly Cloudy
7:53 PM 57.9 °F 41.0 °F 53% 29.98 in 10.0 mi SE 16.1 mph - N/A   Overcast
8:53 PM 57.9 °F 41.0 °F 53% 29.96 in 10.0 mi West 6.9 mph - N/A   Overcast
9:53 PM 57.0 °F 39.9 °F 53% 29.98 in 10.0 mi SW 4.6 mph - N/A   Partly Cloudy
11:53 PM 52.0 °F 39.9 °F 63% 29.98 in 10.0 mi Calm Calm - N/A   Clear